Regional Weather Roundup
Issued by NWS

Home | Current Version | Previous Version | Graphics & Text | Print | Product List | Glossary On
Versions: 1 2 3 4 5 6 7 8 9 10 11 12 13 14 15 16 17 18 19 20 21 22 23 24 25 26 27 28 29 30 31 32 33 34 35 36 37 38 39 40 41 42 43 44 45 46 47 48 49 50
000
ASUS43 KIND 310609
RWRIN

WEATHER ROUNDUP FOR INDIANA
NATIONAL WEATHER SERVICE INDIANAPOLIS IN
200 AM EDT TUE MAY 31 2016

NOTE: "FAIR" INDICATES FEW OR NO CLOUDS BELOW 12,000 FEET WITH NO
SIGNIFICANT WEATHER AND/OR OBSTRUCTIONS TO VISIBILITY.

* - STATION DOES NOT REPORT WEATHER SUCH AS PRECIPITATION OR FOG.

+ - STATION NOT QUALITY CONTROLLED BY THE NATIONAL WEATHER SERVICE.
    USE DATA WITH CAUTION...ESPECIALLY DEWPOINT AND RELATIVE
    HUMIDITY OBSERVATIONS.

INZ001>003-010>013-019-020-310700-
NORTHWEST INDIANA

CITY           SKY/WX    TMP DP  RH WIND       PRES   REMARKS
GARY /AIRPORT/ PTCLDY    67  64  90 NE6       29.99S
KNOX *+        PTCLDY    64  50  59 E3        29.99S
LA PORTE +     CLEAR     70  58  67 NE5       30.00S
6HR MIN TEMP:  69; 6HR MAX TEMP:  81;

MICHIGAN CITY+ CLEAR     61  61 100 CALM      30.00S
MONTICELLO +   CLEAR     70  54  57 CALM      29.97S
6HR MIN TEMP:  70; 6HR MAX TEMP:  83;

RENSSELAER +   CLEAR     68  55  64 CALM      29.99S
VALPARAISO     CLEAR     66  57  72 NE7       29.99F
6HR MIN TEMP:  64; 6HR MAX TEMP:  81;


$$

LMZ046-743>745-310700-
SOUTHERN LAKE MICHIGAN

STATION/POSITION TIME  TEMP    WIND        PRES    WAVE
                       AIR SEA DIR/SP/G            HT
                 (UTC) (F)     (DEG/KT/KT) (MB)    (FT)
BURNS HARBOR     0500   64      80/  8/  9 1016.3R
MICHIGAN CITY    0500   65      40/  6/  7   N/A
5NW MICH CITY    0500   64 62   60/  6/  6   N/A     1

$$

INZ004-005-014>016-021>024-310700-
NORTH CENTRAL INDIANA

CITY           SKY/WX    TMP DP  RH WIND       PRES   REMARKS
GOSHEN         CLEAR     61  54  77 CALM      30.00S
6HR MIN TEMP:  59; 6HR MAX TEMP:  78;

LOGANSPORT +   CLEAR     70  55  60 E3        29.99S
ROCHESTER +    CLEAR     68  61  77 CALM      30.00S
SOUTH BEND     CLEAR     67  57  70 NE7       30.00S
6HR MIN TEMP:  66; 6HR MAX TEMP:  81;

WARSAW +       PTCLDY    63  57  82 CALM      30.00S

$$

INZ006>009-017-018-025>027-310700-
NORTHEAST INDIANA

CITY           SKY/WX    TMP DP  RH WIND       PRES   REMARKS
ANGOLA *+        N/A     61  57  88 CALM      30.01S
AUBURN +       CLEAR     61  54  77 CALM      30.01S
FORT WAYNE     PTCLDY    68  54  60 CALM      30.00S
6HR MIN TEMP:  67; 6HR MAX TEMP:  81;

HUNTINGTON +   PTCLDY   N/A N/A N/A CALM      29.99S

$$

INZ028-029-035-036-043>045-051>053-310700-
WEST CENTRAL INDIANA

CITY           SKY/WX    TMP DP  RH WIND       PRES   REMARKS
CRAWFORDSVL +  PTCLDY    62  60  91 CALM      29.99R
6HR MIN TEMP:  62; 6HR MAX TEMP:  82;

GREENCASTLE +  PTCLDY    63  63 100 CALM      29.99F
LAFAYETTE      PTCLDY    64  59  83 N3        29.98R
6HR MIN TEMP:  63; 6HR MAX TEMP:  81;

TERRE HAUTE    PTCLDY    67  61  81 CALM      29.98F
6HR MIN TEMP:  66; 6HR MAX TEMP:  83;


$$

INZ030>032-037>040-046>048-054>057-064-065-310700-
CENTRAL INDIANA

CITY           SKY/WX    TMP DP  RH WIND       PRES   REMARKS
CP ATTERBURY + PTCLDY    63  59  88 CALM      29.99F
FRANKFORT +      N/A     67  48  50 CALM      30.01S
6HR MIN TEMP:  67; 6HR MAX TEMP:  83;

GREENWOOD *+   MOCLDY    66  59  77 CALM      30.00S
INDIANAPOLIS   PTCLDY    69  58  67 SW5       29.97F
6HR MIN TEMP:  68; 6HR MAX TEMP:  79;

-EAGLE CREEK   CLOUDY    69  58  67 CALM      29.98S
6HR MIN TEMP:  68; 6HR MAX TEMP:  83;

KOKOMO *+      PTCLDY    70  54  56 CALM      29.99S
6HR MIN TEMP:  66; 6HR MAX TEMP:  82;

MARION +       MOCLDY    66  57  72 CALM      30.00S
SHELBYVILLE    CLOUDY    66  57  72 CALM      29.98S
6HR MIN TEMP:  66; 6HR MAX TEMP:  84;

ZIONSVILLE +   PTCLDY    63  58  86 CALM      30.00S
6HR MIN TEMP:  63; 6HR MAX TEMP:  80;


$$

INZ033-034-041-042-049-050-058-059-310700-
EAST CENTRAL INDIANA

CITY           SKY/WX    TMP DP  RH WIND       PRES   REMARKS
MUNCIE         PTCLDY    68  57  68 CALM      29.99S
6HR MIN TEMP:  66; 6HR MAX TEMP:  85;


$$

INZ060-061-067>069-081>083-085>088-310700-
SOUTHWEST INDIANA

CITY           SKY/WX    TMP DP  RH WIND       PRES   REMARKS
EVANSVILLE     CLOUDY    66  61  84 CALM      29.97F
6HR MIN TEMP:  66; 6HR MAX TEMP:  82;

HUNTINGBURG *+ CLEAR     64  61  88 CALM      29.97F
6HR MIN TEMP:  64; 6HR MAX TEMP:  82;

WASHINGTON +   MOCLDY    66  66 100 CALM      29.97S
6HR MIN TEMP:  66; 6HR MAX TEMP:  81;


$$

INZ062-063-066-070>080-084-089>092-310700-
SOUTH CENTRAL AND SOUTHEAST INDIANA

CITY           SKY/WX    TMP DP  RH WIND       PRES   REMARKS
BEDFORD +      PTCLDY    64  64 100 CALM      29.98F
BLOOMINGTON    PTCLDY    65  60  84 CALM      29.98F
6HR MIN TEMP:  64; 6HR MAX TEMP:  81;

MADISON *+     PTCLDY    64  61  88 CALM      30.01F
NORTH VERNON + FOG      N/A N/A N/A CALM      29.99  VSB 1/2
SEYMOUR +      CLOUDY    66  63  88 CALM      29.98F

$$





USA.gov is the U.S. government's official web portal to all federal, state and local government web resources and services.